FW7685 Weather Reports


time (UTC)temp
F
wind
direction
speed
knots
gust
knots
rain 1hr
in
rain 24hr
in
rain mn
in
humidity
%
barometer
mb
20260505140152 58 314 0.9 4.3 0.00 0.00 0.00 49 1010.9
20260505124748 59 23 1.7 6.1 0.00 0.00 0.00 48 1011.2
20260505124423 59 69 1.7 4.3 0.00 0.00 0.00 49 1011.2
20260505123249 58 178 1.7 3.5 0.00 0.00 0.00 50 1011.3
20260505122748 58 35 0.9 2.6 0.00 0.00 0.00 50 1011.3
20260505122249 57 39 0.9 3.5 0.00 0.00 0.00 51 1011.3
20260505122152 57 317 1.7 3.5 0.00 0.00 0.00 51 1011.3
20260505121423 57 45 0.9 4.3 0.00 0.00 0.00 50 1011.3
20260505120250 58 72 1.7 4.3 0.00 0.00 0.00 51 1011.3
20260505115746 57 269 0.9 3.5 0.00 0.00 0.00 52 1011.3
20260505115247 57 314 0.9 4.3 0.00 0.00 0.00 52 1011.3
20260505114747 57 109 1.7 4.3 0.00 0.00 0.00 51 1011.3
20260505114247 56 286 0.9 3.5 0.00 0.00 0.00 51 1011.4
20260505114139 56 223 1.7 3.5 0.00 0.00 0.00 51 1011.4
20260505113247 56 314 1.7 3.5 0.00 0.00 0.00 51 1011.4
20260505112747 56 234 1.7 3.5 0.00 0.00 0.00 52 1011.5
20260505112248 56 16 0.9 3.5 0.00 0.00 0.00 52 1011.5
20260505111746 55 89 0.9 3.5 0.00 0.00 0.00 52 1011.6
20260505111249 55 45 0.9 3.5 0.00 0.00 0.00 52 1011.6
20260505110747 55 45 0.9 3.5 0.00 0.00 0.00 52 1011.6
20260505110248 55 1 0.9 4.3 0.00 0.00 0.00 52 1011.7
20260505102141 54 269 1.7 3.5 0.00 0.00 0.00 53 1011.8
20260505101418 54 45 1.7 3.5 0.00 0.00 0.00 53 1011.9
20260505100248 54 117 0.9 5.2 0.00 0.00 0.00 54 1011.9
20260505095920 54 312 1.7 5.2 0.00 0.00 0.00 55 1012.0
20260505094746 53 1 1.7 5.2 0.00 0.00 0.00 54 1012.0
20260505094249 53 54 1.7 5.2 0.00 0.00 0.00 54 1012.0
20260505093745 53 319 0.9 5.2 0.00 0.00 0.00 54 1012.0
20260505093246 53 45 1.7 4.3 0.00 0.00 0.00 54 1012.0
20260505092745 54 319 1.7 5.2 0.00 0.00 0.00 53 1012.0
20260505092247 54 303 1.7 5.2 0.00 0.00 0.00 53 1012.0
20260505091743 54 281 0.9 5.2 0.00 0.00 0.00 54 1012.0
20260505091651 54 307 1.7 5.2 0.00 0.00 0.00 53 1012.0
20260505090744 54 337 1.7 4.3 0.00 0.00 0.00 54 1012.0
20260505090244 54 8 1.7 3.5 0.00 0.00 0.00 54 1012.0
20260505090139 54 56 0.9 3.5 0.00 0.00 0.00 54 1012.0
20260505085245 54 327 0.9 4.3 0.00 0.00 0.00 54 1012.1
20260505084745 54 298 1.7 4.3 0.00 0.00 0.00 54 1012.1
20260505084242 54 1 1.7 4.3 0.00 0.00 0.00 54 1012.1
20260505083742 54 38 0.9 2.6 0.00 0.00 0.00 55 1012.2
20260505083636 53 28 0.9 3.5 0.00 0.00 0.00 55 1012.2
20260505083136 53 321 1.7 4.3 0.00 0.00 0.00 55 1012.3
20260505082241 53 20 1.7 4.3 0.00 0.00 0.00 55 1012.2
20260505081740 53 45 1.7 4.3 0.00 0.00 0.00 55 1012.1
20260505081242 53 314 1.7 4.3 0.00 0.00 0.00 54 1012.1
20260505080739 53 45 1.7 3.5 0.00 0.00 0.00 55 1012.1
20260505080239 53 314 0.9 4.3 0.00 0.00 0.00 55 1012.1
20260505075739 53 45 1.7 4.3 0.00 0.00 0.00 54 1012.1
20260505075241 53 45 1.7 4.3 0.00 0.00 0.00 54 1012.1
20260505074741 53 62 0.9 3.5 0.00 0.00 0.00 55 1012.1
20260505074239 53 1 0.9 3.5 0.00 0.00 0.00 55 1012.1
20260505073740 53 1 0.9 3.5 0.00 0.00 0.00 55 1012.1
20260505073238 53 269 1.7 2.6 0.00 0.00 0.00 56 1012.1
20260505072743 53 38 0.9 4.3 0.00 0.00 0.00 56 1012.1
20260505072636 53 341 1.7 4.3 0.00 0.00 0.00 55 1012.1
20260505071740 53 230 1.7 3.5 0.00 0.00 0.00 55 1012.1
20260505071240 53 269 1.7 3.5 0.00 0.00 0.00 55 1012.2
20260505070925 53 1 0.9 3.5 0.00 0.00 0.00 55 1012.2
20260505070834 53 62 1.7 3.5 0.00 0.00 0.00 55 1012.1
20260505065241 53 20 1.7 3.5 0.00 0.00 0.00 56 1012.1
20260505064740 53 321 1.7 3.5 0.00 0.00 0.00 56 1012.2
20260505064238 53 314 1.7 3.5 0.00 0.00 0.00 57 1012.2
20260505063739 53 321 0.9 3.5 0.00 0.00 0.00 57 1012.3
20260505063241 53 320 1.7 3.5 0.00 0.00 0.00 57 1012.2
20260505062740 53 314 0.9 2.6 0.00 0.00 0.00 58 1012.2
20260505062239 52 1 0.9 4.3 0.00 0.00 0.00 58 1012.2
20260505061740 52 306 0.9 4.3 0.00 0.00 0.00 59 1012.1
20260505061240 52 353 0.9 2.6 0.00 0.00 0.00 60 1012.1
20260505060741 52 135 0.0 2.6 0.00 0.00 0.00 60 1012.2
20260505060240 52 324 0.9 2.6 0.00 0.00 0.00 61 1012.1
20260505055738 52 1 0.9 2.6 0.00 0.00 0.00 61 1012.1
20260505055238 52 216 0.9 2.6 0.00 0.00 0.00 61 1012.1
20260505054740 52 310 1.7 2.6 0.00 0.00 0.00 61 1012.1
20260505054238 52 300 0.9 2.6 0.00 0.00 0.00 61 1012.1
20260505054119 51 89 0.9 2.6 0.00 0.00 0.00 61 1012.1
20260505053239 51 306 0.9 2.6 0.00 0.00 0.00 61 1012.2
20260505052741 51 296 0.9 2.6 0.00 0.00 0.00 61 1012.2
20260505052238 51 223 1.7 3.5 0.00 0.00 0.00 61 1012.2
20260505051737 51 321 0.9 3.5 0.00 0.00 0.00 61 1012.2
20260505051237 51 269 0.9 2.6 0.00 0.00 0.00 61 1012.2
20260505050736 51 319 0.9 2.6 0.00 0.00 0.00 61 1012.2
20260505050633 51 331 0.9 2.6 0.00 0.00 0.00 61 1012.2
20260505041737 52 331 0.0 2.6 0.00 0.00 0.00 60 1012.5
20260505041237 52 1 0.9 3.5 0.00 0.00 0.00 60 1012.4
20260505040736 52 1 0.9 3.5 0.00 0.00 0.00 60 1012.3
20260505040237 52 314 0.9 2.6 0.00 0.00 0.00 60 1012.4
20260505035736 52 303 1.7 2.6 0.00 0.00 0.00 60 1012.4
20260505035627 52 269 0.9 2.6 0.00 0.00 0.00 60 1012.4
20260505034738 52 314 0.9 2.6 0.00 0.00 0.00 60 1012.4
20260505034628 52 327 0.9 1.7 0.00 0.00 0.00 60 1012.3
20260505033736 52 269 0.9 1.7 0.00 0.00 0.00 60 1012.3
20260505033235 52 321 0.9 1.7 0.00 0.00 0.00 60 1012.4
20260505032734 52 303 0.9 1.7 0.00 0.00 0.00 60 1012.4
20260505032405 52 135 0.0 2.6 0.00 0.00 0.00 60 1012.4
20260505031235 52 296 0.9 3.5 0.00 0.00 0.00 60 1012.4
20260505030734 52 79 0.9 3.5 0.00 0.00 0.00 60 1012.5
20260505030234 52 45 0.9 1.7 0.00 0.00 0.00 60 1012.5
20260505025859 52 28 0.9 2.6 0.00 0.00 0.00 60 1012.5
20260505024736 52 1 0.9 1.7 0.00 0.00 0.00 60 1012.5
20260505024234 52 314 0.9 2.6 0.00 0.00 0.00 60 1012.5
20260505023736 52 269 0.9 3.5 0.00 0.00 0.00 60 1012.5
20260505023624 53 296 0.9 3.5 0.00 0.00 0.00 60 1012.4
20260505022734 53 299 0.9 3.5 0.00 0.00 0.00 60 1012.4
20260505022234 53 314 0.9 3.5 0.00 0.00 0.00 60 1012.3
20260505021733 53 314 0.9 3.5 0.00 0.00 0.00 60 1012.4
20260505021235 53 269 0.9 3.5 0.00 0.00 0.00 60 1012.4
20260505020734 53 324 0.9 3.5 0.00 0.00 0.00 60 1012.5
20260505020232 53 206 0.9 2.6 0.00 0.00 0.00 60 1012.4
20260505015733 53 300 0.9 2.6 0.00 0.00 0.00 60 1012.5
20260505015231 53 178 0.9 2.6 0.00 0.00 0.00 60 1012.8
20260505014733 53 331 0.9 2.6 0.00 0.00 0.00 60 1012.8
20260505014232 53 314 0.9 3.5 0.00 0.00 0.00 60 1012.8
20260505013733 53 324 0.9 3.5 0.00 0.00 0.00 60 1012.6
20260505013231 53 279 0.9 2.6 0.00 0.00 0.00 60 1012.9
20260505012733 53 306 0.9 2.6 0.00 0.00 0.00 60 1013.0
20260505012726 53 135 0.0 0.9 0.00 0.00 0.00 60 1013.2
20260505012125 53 1 0.0 1.7 0.00 0.00 0.00 60 1013.1
20260505011233 53 331 0.0 1.7 0.00 0.00 0.00 60 1012.9
20260505010732 53 314 0.9 2.6 0.00 0.00 0.00 60 1012.9
20260505010233 53 20 0.9 2.6 0.00 0.00 0.00 60 1013.0
20260505005732 54 1 0.9 2.6 0.00 0.00 0.00 59 1013.0
20260505005231 54 28 0.9 2.6 0.00 0.00 0.00 59 1013.0
20260505004732 54 135 0.9 2.6 0.00 0.00 0.00 59 1013.1
20260505004625 54 331 0.9 1.7 0.00 0.00 0.00 59 1013.2
20260505003733 54 45 0.0 1.7 0.00 0.00 0.00 59 1013.1
20260505003621 54 269 0.9 1.7 0.00 0.00 0.00 59 1013.2
20260505002733 54 310 0.9 3.5 0.00 0.00 0.00 59 1013.2
20260505002231 54 45 0.9 3.5 0.00 0.00 0.00 59 1013.2
20260505001734 54 321 1.7 2.6 0.00 0.00 0.00 59 1013.3
20260505001231 54 45 0.9 2.6 0.00 0.00 0.00 59 1013.3
20260505001130 54 23 1.7 2.6 0.00 0.00 0.00 59 1013.3
20260505000230 54 348 1.7 2.6 0.00 0.00 0.00 59 1013.3
20260504235730 54 20 1.7 2.6 0.00 0.00 0.00 59 1013.4
20260504235230 54 28 0.9 2.6 0.00 0.00 0.00 59 1013.5
20260504235130 54 351 0.9 2.6 0.00 0.00 0.00 59 1013.5
20260504234232 55 341 1.7 2.6 0.00 0.00 0.00 59 1013.5
20260504233728 55 309 1.7 2.6 0.00 0.00 0.00 59 1013.4
20260504233229 55 314 0.9 2.6 0.00 0.00 0.00 59 1013.4
20260504232728 55 337 0.9 3.5 0.00 0.00 0.00 59 1013.5
20260504232229 55 337 1.7 3.5 0.00 0.00 0.00 59 1013.5
20260504231728 55 28 0.9 2.6 0.00 0.00 0.00 59 1013.4
20260504231625 55 1 1.7 3.5 0.00 0.00 0.00 59 1013.4
20260504231135 55 56 1.7 3.5 0.00 0.00 0.00 59 1013.4
20260504230226 55 1 0.9 2.6 0.00 0.00 0.00 59 1013.5
20260504225731 55 31 1.7 2.6 0.00 0.00 0.00 59 1013.5
20260504225228 55 45 0.9 2.6 0.00 0.00 0.00 59 1013.6
20260504224731 55 327 1.7 2.6 0.00 0.00 0.00 59 1013.6
20260504224231 55 54 0.9 2.6 0.00 0.00 0.00 59 1013.5
20260504223729 55 178 0.9 3.5 0.00 0.00 0.00 59 1013.7
20260504223228 55 45 1.7 3.5 0.00 0.00 0.00 59 1013.6
20260504223128 56 344 0.9 3.5 0.00 0.00 0.00 59 1013.6
20260504222229 56 269 0.9 2.6 0.00 0.00 0.00 58 1013.7
20260504222125 56 306 1.7 2.6 0.00 0.00 0.00 58 1013.6
20260504221625 56 45 0.9 3.5 0.00 0.00 0.00 58 1013.6
20260504221123 56 286 1.7 3.5 0.00 0.00 0.00 58 1013.7
20260504220229 56 314 0.9 2.6 0.00 0.00 0.00 59 1013.7
20260504215727 56 331 1.7 2.6 0.00 0.00 0.00 58 1013.7
20260504215230 56 314 0.9 2.6 0.00 0.00 0.00 59 1013.7
20260504214728 56 306 1.7 2.6 0.00 0.00 0.00 58 1013.7
20260504214227 56 28 0.9 2.6 0.00 0.00 0.00 58 1013.7
20260504214122 56 324 0.9 3.5 0.00 0.00 0.00 58 1013.7
20260504213618 56 269 0.9 3.5 0.00 0.00 0.00 58 1013.7
20260504212728 56 45 0.9 3.5 0.00 0.00 0.00 58 1013.8
20260504212226 56 279 0.9 3.5 0.00 0.00 0.00 58 1013.8
20260504211726 56 314 0.9 3.5 0.00 0.00 0.00 58 1013.8
20260504211227 56 56 0.9 5.2 0.00 0.00 0.00 58 1013.8
20260504210725 56 117 1.7 5.2 0.00 0.00 0.00 58 1013.8
20260504210622 56 1 0.0 2.6 0.00 0.00 0.00 58 1013.8
20260504205725 57 45 0.9 2.6 0.00 0.00 0.00 58 1013.8
20260504205619 57 323 0.9 2.6 0.00 0.00 0.00 58 1013.8
20260504204726 57 314 0.9 2.6 0.00 0.00 0.00 58 1013.7
20260504204227 57 32 0.9 2.6 0.00 0.00 0.00 58 1013.7
20260504203725 57 28 0.9 2.6 0.00 0.00 0.00 58 1013.7
20260504203227 57 286 0.9 2.6 0.00 0.00 0.00 58 1013.6
20260504202724 57 28 0.9 1.7 0.00 0.00 0.00 58 1013.7
20260504202225 57 292 0.9 1.7 0.00 0.00 0.00 58 1013.7
20260504201725 57 28 0.9 1.7 0.00 0.00 0.00 58 1013.6
20260504201614 57 28 0.9 2.6 0.00 0.00 0.00 58 1013.6
20260504200726 57 35 0.0 2.6 0.00 0.00 0.00 58 1013.6
20260504200223 57 314 0.9 1.7 0.00 0.00 0.00 58 1013.5
20260504200126 57 223 0.0 1.7 0.00 0.00 0.00 58 1013.6
20260504195619 57 269 0.0 1.7 0.00 0.00 0.00 58 1013.5
20260504194723 57 1 0.0 2.6 0.00 0.00 0.00 58 1013.4
20260504194619 57 314 0.9 3.5 0.00 0.00 0.00 58 1013.4
20260504193720 57 320 0.9 3.5 0.00 0.00 0.00 57 1013.4
20260504193220 57 296 0.9 2.6 0.00 0.00 0.00 57 1013.3
20260504192718 57 89 0.9 2.6 0.00 0.00 0.00 57 1013.2
20260504192219 58 89 0.9 3.5 0.00 0.00 0.00 57 1013.2
20260504191718 58 314 0.9 3.5 0.00 0.00 0.00 57 1013.3
20260504191215 58 72 1.7 3.5 0.00 0.00 0.00 57 1013.3
20260504190715 58 10 0.9 3.5 0.00 0.00 0.00 57 1013.2
20260504190215 58 1 0.9 2.6 0.00 0.00 0.00 57 1013.3
20260504185717 58 20 0.9 2.6 0.00 0.00 0.00 57 1013.1
20260504185611 58 1 0.9 2.6 0.00 0.00 0.00 57 1013.2
20260504185116 58 1 0.9 3.5 0.00 0.00 0.00 57 1013.2
20260504184210 58 24 1.7 3.5 0.00 0.00 0.00 56 1013.2
20260504183713 58 338 1.7 2.6 0.00 0.00 0.00 56 1013.1
20260504183212 58 28 0.9 2.6 0.00 0.00 0.00 56 1013.1
20260504183118 58 45 0.9 2.6 0.00 0.00 0.00 56 1013.0
20260504182211 59 28 0.9 2.6 0.00 0.00 0.00 56 1013.0
20260504181710 59 51 0.9 2.6 0.00 0.00 0.00 56 1013.0
20260504181208 59 45 0.9 2.6 0.00 0.00 0.00 56 1013.0
20260504180708 59 117 0.9 3.5 0.00 0.00 0.00 56 1013.0
20260504180208 59 28 1.7 3.5 0.00 0.00 0.00 56 1013.0
20260504175707 59 135 1.7 2.6 0.00 0.00 0.00 56 1013.0
20260504175207 59 45 1.7 4.3 0.00 0.00 0.00 55 1012.9
20260504174708 59 331 1.7 4.3 0.00 0.00 0.00 55 1012.9
20260504174207 59 20 1.7 3.5 0.00 0.00 0.00 55 1012.9
20260504174057 59 35 1.7 4.3 0.00 0.00 0.00 55 1013.0
20260504173204 59 10 1.7 4.3 0.00 0.00 0.00 55 1012.9
20260504172705 59 75 1.7 4.3 0.00 0.00 0.00 55 1012.9
20260504172207 60 336 1.7 4.3 0.00 0.00 0.00 54 1012.9
20260504171704 60 69 2.6 4.3 0.00 0.00 0.00 54 1012.9
20260504171203 60 296 2.6 4.3 0.00 0.00 0.00 54 1012.9
20260504170704 60 41 1.7 6.1 0.00 0.00 0.00 53 1012.8
20260504170204 60 58 1.7 6.1 0.00 0.00 0.00 53 1012.8
20260504160203 63 1 1.7 5.2 0.00 0.00 0.00 50 1012.8
20260504150702 63 316 1.7 6.1 0.00 0.00 0.00 50 1012.8
20260504150202 62 69 3.5 6.1 0.00 0.00 0.00 51 1012.8